Погода в Волне

Россия / Краснодарский край     45°07′36″N   36°42′46″E
темп.,
°C
ветер,
м/с
пор.,
м/с
влажн.,
%
обл.,
%
осадки,
мм/ч
давл.,
гПа
погр.,
м
21 января, пт
пт2100:00+6ююз12147583 0.6 10161150
03:00+7ююз141778100 1.0 10151187
06:00+7юз12168230 0.6 1013888
09:00+7юз101479100 0.6 1013746
12:00+7юз101279100 0.3 1013817
15:00+4зсз8992100 1.5 1014730
18:00+2сз5790100 1.3 1015565
21:00+3зсз4662100 1.4 1015902
22 января, сб
сб2200:00+3зсз5758100 0.3 10151227
03:00+3сз3454100 0.7 1015956
06:00+3ссз4549100 0.0 1014900
09:00+2ссв3448100 0.0 1015610
12:00+2в3357100 0.0 1015559
15:00+2в3360100 0.0 1015647
18:00+1в5674100 0.0 1015447
21:00+1в7984100 0.0 1015538
23 января, вс
вс2300:00+1всв7997100 0.3 1014569
03:00+1всв91196100 1.6 1013715
06:00+1св101297100 1.7 1011747
09:00+1св111297100 5.0 1011755
12:00+1св101297100 3.6 1011774
15:00+1ссв101197100 5.6 1011749
18:00+1ссв91297100 2.0 1011713
21:00+2с91098100 3.3 1012556
24 января, пн
пн2400:00+1ссз111298100 1.5 1013652
03:00+1ссз9984100 1.7 1014787
06:00+1сз91086100 0.1 1015725
09:00+1сз9984100 0.3 1017721
12:00+1сз91080100 0.0 1018940
15:00+1зсз101079100 0.1 1019950
18:00+1зсз101177100 0.0 1021865
21:00+1зсз997697 0.1 1022868
25 января, вт
вт2500:000з9107816 0.0 1023592
03:000з7877100 0.0 1024576
06:000з7976100 0.0 1025521
09:000зсз5676100 0.0 1026390
12:00+1з2372100 0.0 1025399
15:00+1ссв227237 0.0 1023329
18:00+1всв3472100 0.0 1023430
21:00+1в6880100 0.0 1022485